Regional Weather Roundup
Issued by NWS Wakefield, VA

Home | Current Version | Previous Version | Graphics & Text | Print | Product List | Glossary On
Versions: 1 2 3 4 5 6 7 8 9 10 11 12 13 14 15 16 17 18 19 20 21 22 23 24 25 26 27 28 29 30 31 32 33 34 35 36 37 38 39 40 41 42 43 44 45 46 47 48 49 50
364
ASUS41 KAKQ 060315
RWRAKQ

REGIONAL WEATHER ROUNDUP
NATIONAL WEATHER SERVICE WAKEFIELD VA
1000 PM EST MON DEC 05 2016

Note: "fair" indicates few or no clouds below 12,000 feet with no
significant weather and/or obstructions to visibility. * = Denotes
station may not report precipitation (e.g., rain,snow,etc.),
thunder or fog.

VAZ042-051-052>054-056-060400-
NORTHERN VIRGINIA

CITY           SKY/WX    TMP DP  RH WIND       PRES   REMARKS
WASH NATIONAL  CLOUDY    47  35  63 N7        30.12R
DULLES         CLOUDY    42  32  67 CALM      30.12R
FORT BELVOIR   CLOUDY    47  33  58 CALM      30.11R
QUANTICO       MOCLDY    44  39  82 NW5       30.12R
FREDERICKSBRG* CLOUDY    42  42 100 W3        30.11R
STAFFORD*      CLOUDY    39  39  99 N5        30.15R
WARRENTON      MOCLDY    42  33  71 N3        30.11R
CULPEPER*      CLOUDY    43  37  78 CALM      30.13R
MANASSAS*      CLEAR     46  36  66 CALM      30.11R
LEESBURG*      CLOUDY    41  36  81 MISG      30.13R
WINCHESTER     CLOUDY    37  30  75 CALM      30.11R
FRONT ROYAL*   FAIR      41  32  70 CALM      30.10R
LURAY*         FAIR      45  34  65 N5        30.10R
$$

VAZ048-049-060>072-079>083-060400-
CENTRAL AND SOUTH CENTRAL VIRGINIA

CITY           SKY/WX    TMP DP  RH WIND       PRES   REMARKS
RICHMOND       CLOUDY    45  41  86 CALM      30.10
CHESTERFIELD*  FAIR      43  28  56 CALM      30.12R
PETERSBURG*    CLOUDY    42  41  95 CALM      30.11R
HANOVER        CLOUDY    42  39  89 CALM      30.12R
TAPPAHANNOCK*  CLOUDY    40  40 100 CALM      30.11R
QUINTON*       FAIR      42  41  99 CALM      30.09R
CHARLOTTSVILLE MOCLDY    47  41  80 CALM      30.10R
GORDONSVILLE*  FAIR      41  41 100 NE3       30.11R
ORANGE*          N/A     43  43 100 CALM      30.13R
LOUISA*        MOCLDY    45  43  93 CALM      30.10R
BUMPASS*       FAIR      41  41 100 CALM      30.11R
FARMVILLE*     CLOUDY    45  44  96 CALM      30.11R
CREWE*         FAIR      44  44 100 CALM      30.11R
FORT PICKETT*  FAIR      45  42  88 CALM      30.11R
CHASE CITY*    CLOUDY    47  45  94 CALM      30.09S
CLARKSVILLE*   CLOUDY    48  45  87 E3        30.08F
SOUTH HILL*    CLOUDY    46  44  94 CALM      30.15F
LAWRENCEVILLE* FAIR      45  43  93 CALM      30.10S
EMPORIA*       CLOUDY    43  43 100 CALM      30.12R
$$

VAZ088>098-060400-
SOUTHEAST VIRGINIA

CITY           SKY/WX    TMP DP  RH WIND       PRES   REMARKS
NORFOLK        CLOUDY    50  42  74 NE8       30.09R
VIRGINIA BEACH CLOUDY    48  40  73 NE3       30.09R
NORFOLK NAVAL  CLOUDY    50  42  74 NE5       30.11R
WEST POINT*    CLOUDY    41  40  97 CALM      30.11R
SALUDA*        FAIR      41  41 100 CALM      30.08F
NEWPORT NEWS   CLOUDY    45  43  93 CALM      30.10R
LANGLEY AFB    CLOUDY    46  44  91 CALM      30.09R
FORT EUSTIS    CLOUDY    45  41  88 CALM      30.08R
WILLIAMSBURG*  CLOUDY    45  45 100 CALM      30.11R
HR EXEC AP*    FAIR      43  39  87 CALM      30.08R
FRANKLIN*      CLOUDY    43  42  94 CALM      30.11R
US460-WAKEFLD  MOCLDY    43  42  97 CALM      30.11R
$$

VAZ020-022-025-037-045-060400-
WEST CENTRAL AND SOUTHWEST VIRGINIA

CITY           SKY/WX    TMP DP  RH WIND       PRES   REMARKS
STAUNTON*      PTCLDY    40  33  76 CALM      30.11R
WAYNESBORO*    FAIR      44  39  81 CALM      30.09R
HOT SPRINGS VA CLOUDY    39  28  65 E12       30.01R
LYNCHBURG      CLOUDY    46  41  82 CALM      30.10R
DANVILLE       CLOUDY    47  45  93 E3        30.06F
SOUTH BOSTON*  CLOUDY    48  43  84 CALM      30.09S
MARTINSVILLE   DRIZZLE   46  45  95 CALM      30.09R
ROANOKE        CLOUDY    49  40  71 E3        30.08F
BLACKSBURG     CLOUDY    46  36  69 CALM      30.07F
DUBLIN*        MOCLDY    46  39  77 NE3       30.06S
MARION*        DRIZZLE   47  40  79 E12       30.03S
HILLSVILLE*    LGT RAIN  44  43  97 CALM      30.03R
RICHLANDS*     MOCLDY    49  20  32 SE16G28   29.93F
WISE*          CLOUDY    45  37  76 S6        29.92F
ABINGDON*      DRIZZLE   49  44  83 E13       29.95S
$$

MDZ021>025-VAZ099-100-060400-
SOUTHERN MARYLAND AND THE DELMARVA PENINSULA

CITY           SKY/WX    TMP DP  RH WIND       PRES   REMARKS
PATUXENT RIVER CLOUDY    42  39  89 CALM      30.08F
BAY BRIDGE APT CLOUDY    45  36  70 N6        30.11S
LEONARDTOWN    CLOUDY    41  37  87 CALM      30.10F
DOVER          PTCLDY    41  39  93 NW5       30.10R
GEORGETOWN     CLOUDY    45  37  73 N5        30.10R
EASTON         MOCLDY    41  37  86 CALM      30.14R
CAMBRIDGE      MOCLDY    39  37  93 CALM      30.09S
SALISBURY      CLOUDY    38  38 100 CALM      30.09R
OCEAN CITY     PTCLDY    43  37  79 NW3       30.09R
WALLOPS ISLAND CLOUDY    43  40  89 N5        30.09F
ACCOMACK*      CLOUDY    40  40  98 NE3       30.08S
$$

NCZ012>017-030>032-060400-
NORTH CENTRAL AND EASTERN NORTH CAROLINA

CITY           SKY/WX    TMP DP  RH WIND       PRES   REMARKS
ROANOKE RAPIDS FAIR      45  45 100 N3        30.09F
RALEIGH        CLOUDY    49  46  90 NE7       30.07F
ELIZABETH CITY PTCLDY    48  42  80 N5        30.10R
AHOSKIE*       CLOUDY    45  43  94 CALM      30.10F
EDENTON*       PTCLDY    48  43  82 CALM      30.10S
CURRITUCK*     PTCLDY    49  44  82 N3        30.09R
KILL DEVIL HLS MOCLDY    51  47  84 N5        30.07R
MANTEO         MOCLDY    51  45  81 NE7       30.09R
CAPE HATTERAS  PTCLDY    52  47  83 NE7       30.05F
TARBORO*       NOT AVBL
GOLDSBORO      CLOUDY    52  50  92 NE6       30.07S
WASHINGTON     CLOUDY    48  43  82 CALM      30.11R
GREENVILLE     CLOUDY    48  46  93 CALM      30.11R
NEW BERN       CLOUDY    50  45  83 E3        30.10R
WILMINGTON     RAIN      52  52 100 NE10      30.04F
$$

VAZ048-060400-
ELSEWHERE

CITY           SKY/WX    TMP DP  RH WIND       PRES   REMARKS
HARRISBURG PA  CLOUDY    37  32  82 CALM      30.11R
BALTIMORE      CLOUDY    44  32  62 N5        30.11R
ANNAPOLIS      CLOUDY    48  36  63 N6        30.11R
ANDREWS AFB    CLOUDY    41  33  73 N8        30.10R
PHILADELPHIA   CLOUDY    43  31  62 NW6       30.11S
HENDERSON NC   LGT RAIN  46  42  86 CALM      30.09S
GREENSBORO     LGT RAIN  49  45  86 E6        30.04S
ROCKY MOUNT    CLOUDY    50  46  86 CALM      30.10R
$$

VAZ100-060400-
MARINE

STATION/POSITION TIME  TEMP    WIND        PRES    WAVE   SWELL
                       AIR SEA DIR/SP/G            HT/PER HT/PER
                 (UTC) (F)     (DEG/KT/KT) (MB)    (FT/S) (FT/S)
BRANDYWINE LGT   0248   47      10/ 12/ 14   N/A
CAPE MAY NJ      0248   45 48  360/  3/  4 1018.6F
LEWES DE         0248   49 49   20/ 11/ 14 1018.8F
OCEAN-CITY-INLET 0248   48 50   10/  5/  7 1019.0R
WACHAPREAGUE VA  0248   44 49  360/  3/  5 1018.5F
THOMAS POINT MD  0300   47 49   30/ 15/ 16   N/A
GOOSES REEF MD   0300   49 50   10/  8/  8 1019.6
COVE POINT MD    0248   48      60/  4/  6 1019.5F
SOLOMONS ISLAND  0248   45 51  360/  4/  5   N/A
BISHOPS HEAD MD  0248   45 47   20/  2/  3 1018.8F
PINEY POINT MD   0248           40/  2/  2   N/A
POTOMAC MD       0300   48 50   40/  6/  8 1017.8    1
CAMBRIDGE MD     0248   46 47  360/  1/  2 1018.5S
LEWISETTA VA     0248   46 49  340/  1/  1 1018.3F
RAPPAHANNOCK LGT 0248           20/  8/  9 1018.9F
STINGRAY PT      0300   49      20/  2/  4 1019.2    0
YORK RVR RNG VA  0248   49      30/  4/  5 1018.4R
YORKTOWN VA      0248   48 52   CALM  /  1 1018.7R
JAMESTOWN VA     0300   48 52  160/  2/  4   N/A     0
DOMINION TERM VA 0248   49      30/  1/  2 1019.3R
KIPTOPEKE VA     0248      52   50/  1/  5   N/A
CHES BAY BRIDGE  0248   50 53   40/ 10/ 11 1018.8R
CAPE HENRY VA    0248   50      20/ 10/ 11   N/A
WILLOUBY STN VA  0248   50      40/  8/ 10 1020.0R
S CRANEY ISL VA  0248   51      50/  6/  7 1018.9R
CAPE HENRY BUOY  0242      56                N/A     4/ 5
1ST LANDING BUOY 0300   50 53              1019.2    2/ 3
CAPE CHARLES BUO 0256      55                N/A     3/ 4
OFFSHORE WE BUOY 0251      56                N/A     4/ 8
64NM E OF VA BCH 0250   53 60   20/ 19/ 23 1017.3R   6/ 6   2/ 8
DUCK PIER NC     0248   52 54   20/ 11/ 15 1018.0R
44100 DUCK FRF   0235      56                N/A     4/ 6
OREGON INLET NC  0242   53 56   30/ 10/ 12 1018.1F
HATTERAS NC      0248   53 60   30/ 11/ 14 1017.3R
DIAMOND SHLS NC  0250   58 76   30/ 14/ 17 1017.4S   5/ 8   3/ 8
CAPE LOOKOUT NC  0300   53      10/ 11/ 15 1018.3R
$$




USA.gov is the U.S. government's official web portal to all federal, state and local government web resources and services.